Regional Weather Roundup
Issued by NWS

Home | Current Version | Previous Version | Graphics & Text | Print | Product List | Glossary On
Versions: 1 2 3 4 5 6 7 8 9 10 11 12 13 14 15 16 17 18 19 20 21 22 23 24 25 26 27 28 29 30 31 32 33 34 35 36 37 38 39 40 41 42 43 44 45 46 47 48 49 50
000
ASUS43 KOAX 261002
RWRNE

WEATHER ROUNDUP FOR NEBRASKA
NATIONAL WEATHER SERVICE OMAHA NE
500 AM CDT SUN MAR 26 2017

NOTES: SATELLITE DATA IS BEING USED TO AUGMENT CLOUD COVER ABOVE
       12000 FEET.
       "FAIR" INDICATES FEW OR NO CLOUDS BELOW 12,000 FEET WITH NO
       SIGNIFICANT WEATHER AND/OR OBSTRUCTIONS TO VISIBILITY.

  * THESE STATIONS DO NOT REPORT WEATHER SUCH AS RAIN...SNOW OR FOG.

NEZ001>004-019>022-054>056-261100-
NEBRASKA PANHANDLE

CITY           SKY/WX    TMP DP  RH WIND       PRES   REMARKS
SCOTTSBLUFF    CLOUDY    41  30  65 E7        29.80S
ALLIANCE       PTCLDY    34  28  79 S6        29.80F WCI  29
CHADRON        CLOUDY    47  36  65 CALM      29.79S
KIMBALL        CLOUDY    45  35  68 S8        29.82F
SIDNEY         CLOUDY    40  30  67 NW5       29.83R
$$

NEZ057>060-069>072-079>082-261100-
SOUTHWEST NEBRASKA

CITY           SKY/WX    TMP DP  RH WIND       PRES   REMARKS
NORTH PLATTE   CLOUDY    41  37  86 CALM      29.85F
IMPERIAL       FOG       38  37  97 SE7       29.83F VSB 1/4 WCI  33
LEXINGTON      CLOUDY    41  39  95 SE3       29.86F FOG
MCCOOK         FOG       40  40 100 SE6       29.85F VSB 3/4
OGALLALA       FOG       41  40  96 SE6       29.84S VSB 1
$$

NEZ005>010-023>029-035>040-094-261100-
NORTH CENTRAL NEBRASKA

CITY           SKY/WX    TMP DP  RH WIND       PRES   REMARKS
VALENTINE      CLOUDY    40  37  89 SE6       29.85F
AINSWORTH      CLOUDY    39  39 100 CALM      29.85F FOG
BROKEN BOW     CLOUDY    41  40  96 SW3       29.85F
O`NEILL        FOG       39  39  99 CALM      29.89S VSB 1/4
ORD            CLOUDY    39  37  92 CALM      29.87F FOG
THEDFORD       CLOUDY    39  38  99 SW3       29.85F FOG
$$

NEZ041-046>049-061>064-073>077-083>087-261100-
SOUTH CENTRAL NEBRASKA

CITY           SKY/WX    TMP DP  RH WIND       PRES   REMARKS
GRAND ISLAND   CLOUDY    38  38 100 CALM      29.89F FOG
AURORA         CLOUDY    38  38 100 CALM      29.89F FOG
HASTINGS       CLOUDY    39  37  92 NE5       29.88F FOG
HEBRON         CLOUDY    39  38  95 CALM      29.90F
HOLDREGE       CLOUDY    39  38  97 CALM      29.87F
KEARNEY *      CLOUDY    39  36  87 CALM      29.88F
YORK           CLOUDY    39  39 100 CALM      29.90S FOG
$$

NEZ011>018-030>034-042>045-261100-
NORTHEAST NEBRASKA

CITY           SKY/WX    TMP DP  RH WIND       PRES   REMARKS
NORFOLK        CLOUDY    37  35  92 VRB7      29.89S FOG     WCI  32
ALBION         CLOUDY    40  38  94 CALM      29.89F FOG
BLAIR          CLOUDY    39  38  97 N6        29.88S FOG     WCI  35
FREMONT        CLOUDY    39  39 100 CALM      29.90S FOG
TEKAMAH        CLOUDY    40  38  93 NE10      29.89F WCI  33
WAYNE          CLOUDY    37  37  99 N3        29.90S FOG
$$

NEZ050>053-065>068-078-088>093-261100-
SOUTHEAST NEBRASKA

CITY           SKY/WX    TMP DP  RH WIND       PRES   REMARKS
LINCOLN        CLOUDY    40  39  97 N5        29.91S FOG
OMAHA EPPLEY   CLOUDY    40  37  89 N6        29.89S FOG
BEATRICE       CLOUDY    40  40  99 NW3       29.89S
FALLS CITY     CLOUDY    42  40  92 NW7       29.88S
NEBRASKA CITY  CLOUDY    40  40 100 N7        29.89R FOG
PLATTSMOUTH    CLOUDY    40  38  91 NW6       29.89S FOG
$$

NEZ044-045-051>053-067-261100-
OMAHA AREA

CITY           SKY/WX    TMP DP  RH WIND       PRES   REMARKS
OMAHA EPPLEY   CLOUDY    40  37  89 N6        29.89S FOG
BLAIR          CLOUDY    39  38  97 N6        29.88S FOG     WCI  35
FREMONT        CLOUDY    39  39 100 CALM      29.90S FOG
MILLARD        CLOUDY    42  40  93 N3        29.90S
OFFUTT AFB     CLOUDY    40  38  90 N6        29.89R
PLATTSMOUTH    CLOUDY    40  38  91 NW6       29.89S FOG
WAHOO          CLOUDY    39  38  97 N5        29.90S FOG
$$



USA.gov is the U.S. government's official web portal to all federal, state and local government web resources and services.